Location: B�rgermoos
(47.6500°N, 9.0667°E)
Time: 05:19:30
(UTC+00:00)

SPOT 5 - Pass Details

Date: 18 September 2020
Orbit: 623 x 815 km, 98.3° (Epoch: 29 October)

Event Time Altitude Azimuth Distance (km) Brightness Sun altitude
Exits shadow 20:40:12 41° 17° (NNE) 1,140 4.0 -30.2°
Drops below altitude 10° 20:43:50 10° 353° (N) 2,390 6.1 -30.6°
Sets 20:46:15 0° 350° (N) 3,339 7.1 -30.9°
